Location: Newark
(48.4472°N, 1.4892°E)
Time: 03:42:21
(UTC+00:00)

Transit 4A - Pass Details

Date: 23 November 2019
Orbit: 870 x 975 km, 66.8° (Epoch: 06 December)

Event Time Altitude Azimuth Distance (km) Brightness Sun altitude
Exits shadow 05:56:00 12° 318° (NW) 2,438 9.6 -12.5°
Maximum altitude 06:01:26 58° 242° (WSW) 1,022 7.9 -11.7°
Drops below altitude 10° 06:07:06 10° 165° (SSE) 2,511 10.6 -10.8°
Sets 06:09:35 0° 161° (SSE) 3,443 11.5 -10.4°
